Weather History for KCLT - July, 2014

Change the Weather History Date:

Tuesday, July 22, 2014

  Actual Average Record
Temperature  
Mean Temperature 79 °F 79 °F  
Max Temperature 85 °F 89 °F 103 °F (1926)
Min Temperature 72 °F 68 °F 58 °F (2001)
Degree Days  
Heating Degree Days 0 0  
Month to date heating degree days 0 0  
Since 1 June heating degree days 0 3  
Since 1 July heating degree days 0 0  
Cooling Degree Days 14 14  
Month to date cooling degree days 287 301  
Year to date cooling degree days 888 775  
Since 1 June cooling degree days 660 612  
Growing Degree Days 28 (Base 50)    
Moisture  
Dew Point 69 °F    
Average Humidity 79    
Maximum Humidity 93    
Minimum Humidity 65    
Precipitation  
Precipitation T in 0.12 in 2.56 in (2006)
Month to date precipitation 2.63 2.49  
Year to date precipitation 28.27 23.19  
Snow  
Snow 0.00 in 0.00 in 0.00 in ()
Month to date snowfall 0.0 0.0  
Since 1 June snowfall 0.0 0.0  
Since 1 July snowfall 0.0 0.0  
Snow Depth 0.00 in    
Sea Level Pressure  
Sea Level Pressure 30.13 in    
Wind  
Wind Speed 4 mph (ENE)    
Max Wind Speed 14 mph    
Max Gust Speed 18 mph    
Visibility 10 miles    
Events Rain    
T = Trace of Precipitation, MM = Missing Value Source: NWS Daily Summary

Daily Weather History Graph

Daily Weather History Graph

Search for Another Location

Airport or City:

Trip Planner

Search our weather history database for the weather conditions in past years. The results will help you decide how hot, cold, wet, or windy it might be!

Date:

Astronomy

Jul. 22, 2014 Rise Set
Actual Time 6:25 AM EDT 8:34 PM EDT
Civil Twilight 5:56 AM EDT 9:03 PM EDT
Nautical Twilight 5:21 AM EDT 9:38 PM EDT
Astronomical Twilight 4:43 AM EDT 10:15 PM EDT
Moon 2:55 AM EDT (7/22) 5:12 PM EDT (7/22)
Length of Visible Light 15h 06m
Length of Day
14h 09m
Waning Crescent, 16% of the Moon is Illuminated
Jul 22
Waning Crescent
Jul 26
New
Aug 3
First Quarter
Aug 10
Full
Aug 17
Last Quarter

Hourly Weather History & Observations

Time (EDT) Temp. Heat Index Dew Point Humidity Pressure Visibility Wind Dir Wind Speed Gust Speed Precip Events Conditions
12:52 AM 73.0 °F - 68.0 °F 84% 30.13 in 10.0 mi ESE 6.9 mph - N/A   Overcast
1:52 AM 73.0 °F - 68.0 °F 84% 30.13 in 10.0 mi ESE 4.6 mph - N/A   Overcast
2:15 AM 73.4 °F - 68.0 °F 83% 30.15 in 10.0 mi East 4.6 mph - N/A   Overcast
2:52 AM 72.0 °F - 68.0 °F 87% 30.11 in 10.0 mi East 5.8 mph - N/A   Overcast
3:52 AM 72.0 °F - 68.0 °F 87% 30.10 in 10.0 mi ESE 5.8 mph - N/A   Overcast
4:37 AM 71.6 °F - 68.0 °F 88% 30.13 in 10.0 mi East 4.6 mph - N/A   Overcast
4:52 AM 72.0 °F - 68.0 °F 87% 30.11 in 10.0 mi East 5.8 mph - N/A   Overcast
5:05 AM 71.6 °F - 68.0 °F 88% 30.13 in 10.0 mi East 4.6 mph - N/A   Overcast
5:52 AM 72.0 °F - 69.1 °F 91% 30.12 in 10.0 mi Calm Calm - 0.00 in Rain Light Rain
6:52 AM 72.0 °F - 69.1 °F 91% 30.13 in 10.0 mi North 3.5 mph - 0.00 in   Overcast
7:52 AM 72.0 °F - 69.1 °F 91% 30.15 in 10.0 mi ENE 3.5 mph - N/A   Overcast
8:52 AM 73.0 °F - 69.1 °F 87% 30.16 in 10.0 mi East 5.8 mph - N/A   Overcast
9:52 AM 73.4 °F - 69.8 °F 88% 30.19 in 10.0 mi Variable 4.6 mph - N/A   Overcast
10:38 AM 75.2 °F - 69.8 °F 83% 30.19 in 10.0 mi North 5.8 mph - N/A   Overcast
10:52 AM 75.9 °F - 70.0 °F 82% 30.16 in 10.0 mi NE 6.9 mph - N/A   Overcast
11:09 AM 75.2 °F - 69.8 °F 83% 30.18 in 10.0 mi NE 4.6 mph - N/A   Overcast
11:40 AM 77.0 °F - 69.8 °F 78% 30.18 in 10.0 mi Variable 5.8 mph - N/A   Overcast
11:52 AM 77.0 °F - 70.0 °F 79% 30.16 in 10.0 mi Variable 3.5 mph - N/A   Overcast
12:52 PM 80.1 °F 83.2 °F 70.0 °F 71% 30.14 in 10.0 mi Variable 5.8 mph - N/A   Overcast
1:52 PM 81.0 °F 84.1 °F 69.1 °F 67% 30.12 in 10.0 mi NE 3.5 mph - 0.00 in Rain Light Rain
2:52 PM 84.0 °F 87.8 °F 69.1 °F 61% 30.11 in 10.0 mi North 5.8 mph - 0.00 in   Overcast
3:52 PM 82.4 °F 86.3 °F 69.8 °F 66% 30.12 in 10.0 mi NNE 6.9 mph - N/A   Mostly Cloudy
4:52 PM 82.0 °F 86.3 °F 71.1 °F 69% 30.09 in 10.0 mi ENE 8.1 mph - N/A   Mostly Cloudy
5:52 PM 81.0 °F 84.4 °F 70.0 °F 69% 30.09 in 10.0 mi North 5.8 mph - N/A   Mostly Cloudy
6:52 PM 78.1 °F - 69.1 °F 74% 30.09 in 10.0 mi SSE 6.9 mph - N/A   Mostly Cloudy
7:52 PM 78.1 °F - 69.1 °F 74% 30.09 in 10.0 mi ENE 4.6 mph - N/A   Mostly Cloudy
8:52 PM 75.9 °F - 70.0 °F 82% 30.09 in 10.0 mi NNW 3.5 mph - N/A   Mostly Cloudy
9:52 PM 75.0 °F - 70.0 °F 84% 30.10 in 10.0 mi Calm Calm - N/A   Mostly Cloudy
10:52 PM 73.9 °F - 71.1 °F 91% 30.11 in 10.0 mi SW 3.5 mph - N/A   Mostly Cloudy
11:52 PM 73.9 °F - 70.0 °F 87% 30.12 in 10.0 mi Calm Calm - N/A   Mostly Cloudy